[[{"header":{"parameterUnit":"m.s-1","parameterCategory":1,"la1":30.2991,"la2":30.254,"lo1":-89.0895,"lo2":-89.0444,"dy":0.0017,"dx":0.0017,"nx":28,"ny":28,"refTime":"2024-08-25T09:00:00:Z","depth":0,"parameterNumber":2,"parameterNumberName":"U-component_of_WINDS"},"data":[0,0,0,0,0,0,0,0,0,0,0,0,0,0,0,0,0,0,0,0,0,0,0,0,0,0,0,0,0,0,0,0,0,0,0,0,0,0,0,0,0,0,0,0,0,0,0,0,0,0,0,0,0,0,0,0,0,0,-1.9272,-1.9273,0,-1.9323,-1.9324,-1.9324,-1.9248,-1.9246,-1.9243,-1.924,-1.9296,-1.93,-1.9303,0,0,0,0,0,0,0,0,0,0,0,0,0,-1.9111,-1.9115,-1.9272,-1.9273,-1.9273,-1.9323,-1.9324,-1.9325,-1.9249,-1.9245,-1.9242,-1.9239,-1.9294,-1.9299,-1.9304,0,0,0,0,0,0,0,0,0,0,0,0,0,-1.9174,-1.9116,-1.9272,-1.9241,-1.9239,-1.9323,-1.9324,-1.9325,-1.9249,-1.9245,-1.9241,-1.9238,-1.9293,-1.9299,-1.9304,-1.9421,0,0,-1.9323,-1.9325,0,0,0,0,0,0,0,0,-1.917,-1.918,-1.9245,-1.9244,-1.9241,-1.9275,-1.9287,-1.9357,-1.925,-1.9246,-1.924,-1.9236,-1.9292,-1.9298,-1.9317,-1.9424,-1.9426,-1.9323,-1.9327,-1.9329,-1.9331,0,0,0,0,0,0,0,-1.9166,-1.9177,-1.9292,-1.9246,-1.9244,-1.9226,-1.923,-1.93,-1.9291,-1.9246,-1.924,-1.9247,-1.929,-1.9311,-1.9317,-1.9427,-1.9323,-1.9328,-1.9332,-1.9334,-1.9634,-1.9638,0,0,0,0,0,0,-1.9165,-1.9174,-1.9291,-1.9294,-1.9195,-1.9232,-1.9237,-1.9268,-1.929,-1.9289,-1.9251,-1.9244,-1.9303,-1.931,-1.9319,-1.9459,-1.9329,-1.9335,-1.9338,-1.963,-1.9635,-1.964,0,0,0,0,0,0,-1.9162,-1.9176,-1.9289,-1.9233,-1.9245,-1.9239,-1.9275,-1.9272,-1.9292,-1.9294,-1.9292,-1.9273,-1.93,-1.9311,-1.9397,-1.9459,-1.9338,-1.9343,-1.9625,-1.9631,-1.9638,-1.9738,0,0,0,0,0,0,-1.9158,-1.9175,-1.9219,-1.9234,-1.9249,-1.9365,-1.9279,-1.9275,-1.9302,-1.9293,-1.9314,-1.9314,-1.9298,-1.9388,-1.9402,-1.9465,-1.9348,-1.9619,-1.9628,-1.9635,-1.9729,-1.9747,-1.9763,0,0,0,0,0,-1.9152,-1.9246,-1.9222,-1.9237,-1.9303,-1.9369,-1.9377,-1.9356,-1.9307,-1.9352,-1.9353,-1.9313,-1.9449,-1.9398,-1.9413,-1.9479,-1.9615,-1.9625,-1.9635,-1.9722,-1.9744,-1.9762,0,0,0,0,0,0,-1.924,-1.9248,-1.9221,-1.9322,-1.9345,-1.9356,-1.9412,-1.938,-1.9418,-1.9408,-1.938,-1.9386,-1.9478,-1.9486,-1.9428,-1.9593,-1.9524,-1.9538,-1.9585,-1.9606,-1.9623,-1.962,-1.9353,0,0,0,0,0,-1.9271,-1.9323,-1.9327,-1.9416,-1.9429,-1.9418,-1.9446,-1.9427,-1.945,-1.946,-1.9467,-1.9492,-1.9541,-1.9573,-1.9618,-1.9729,-1.9734,-1.9782,-1.9799,-1.9812,-1.9825,-1.9886,-1.9908,-1.9672,-1.9672,-1.9672,0,0,-1.9336,-1.9347,-1.9381,-1.9434,-1.945,-1.9505,-1.9427,-1.9489,-1.953,-1.947,-1.9552,-1.9558,-1.9584,-1.9683,-1.9727,-1.9693,-1.9891,-1.9825,-1.9836,-1.9841,-1.9899,-1.9921,-1.9941,-1.9679,-1.9678,-1.9677,0,0,-1.9484,-1.9496,-1.9572,-1.9589,-1.9614,-1.9606,-1.9624,-1.9639,-1.9641,-1.9722,-1.9679,-1.9727,-1.9811,-1.9831,-1.9853,-2.0007,-1.9973,-2.0023,-2.0112,-2.0171,-2.019,-2.0206,-2.0263,-2.0284,-2.0035,-2.0035,-2.0035,0,-1.9562,-1.9643,-1.9616,-1.9681,-1.9706,-1.9652,-1.973,-1.9748,-1.9786,-1.9805,-1.9765,-1.9869,-1.9883,-1.9987,-2.0025,-2.0043,-2.0065,-2.0021,-2.0189,-2.0205,-2.022,-2.0274,-2.0296,-2.0041,-2.004,-2.004,-2.0039,0,-1.9739,-1.9796,-1.9854,-1.9892,-1.9923,-1.9994,-1.9978,-2.0013,-1.9991,-1.9988,-2.0072,-2.0086,-2.0133,-2.0156,-2.0136,-2.0258,-2.0236,-2.0193,-2.0124,-2.0249,-2.03,-2.032,-2.005,-2.0047,-2.0046,-2.0044,0,0,-1.9946,-1.9966,-1.9988,-2.0005,-2.0028,-2.0072,-2.014,-2.0185,-2.0217,-2.0244,-2.0302,-2.0374,-2.0334,-2.0359,-2.034,-2.0392,-2.0515,-2.0342,-2.0343,-2.0376,-2.0653,-2.0687,-2.0711,-2.0491,-2.0495,-2.0498,-2.0652,0,-2.0094,-2.0212,-2.0189,-2.0305,-2.0358,-2.0308,-2.0368,-2.0389,-2.0387,-2.0432,-2.043,-2.0482,-2.0425,-2.044,-2.0489,-2.049,-2.0571,-2.0478,-2.0547,-2.055,-2.0545,-2.0737,-2.0774,-2.0918,-2.0671,-2.0674,-2.0677,0,-2.0284,-2.0318,-2.0439,-2.0454,-2.0475,-2.0529,-2.0569,-2.0612,-2.0635,-2.063,-2.0657,-2.0628,-2.0698,-2.0625,-2.0721,-2.0659,-2.0685,-2.069,-2.0695,-2.0703,-2.0623,-2.0753,-2.0963,-2.0986,-2.0707,-2.0705,-2.0702,0,-2.0425,-2.0501,-2.0584,-2.0599,-2.0618,-2.0658,-2.0667,-2.0686,-2.0714,-2.0749,-2.0767,-2.081,-2.0834,-2.0868,-2.0852,-2.08,-2.0951,-2.0877,-2.0951,-2.0952,-2.0988,-2.0986,-2.1208,-2.1001,-2.1,-2.1,-2.0999,0,-2.0595,-2.0672,-2.0648,-2.0699,-2.0784,-2.0756,-2.0841,-2.0845,-2.0862,-2.0913,-2.0871,-2.0921,-2.0895,-2.0943,-2.0931,-2.1013,-2.1024,-2.1023,-2.102,-2.1029,-2.1029,-2.1048,-2.1038,-2.1006,-2.1004,-2.1003,-2.1002,0,-2.0769,-2.0755,-2.0842,-2.0852,-2.0856,-2.0919,-2.0927,-2.0976,-2.097,-2.1036,-2.105,-2.1042,-2.1096,-2.1083,-2.1142,-2.1133,-2.1238,-2.1221,-2.1231,-2.1228,-2.1303,-2.1297,-2.1547,-2.1579,-2.1349,-2.1351,-2.1353,0,-2.0879,-2.0937,-2.0953,-2.0984,-2.0997,-2.1047,-2.1076,-2.1051,-2.1083,-2.1113,-2.1158,-2.1208,-2.1247,-2.1337,-2.1337,-2.1382,-2.1367,-2.1451,-2.1374,-2.1381,-2.1371,-2.1369,-2.1376,-2.1468,-2.147,-2.1472,-2.1474,0,-2.1078,-2.1068,-2.1111,-2.1152,-2.1187,-2.1218,-2.1245,-2.1273,-2.125,-2.1288,-2.1343,-2.1373,-2.1433,-2.1484,-2.1526,-2.1536,-2.1503,-2.1498,-2.1518,-2.1529,-2.1534,-2.1535,-2.1276,-2.1493,-2.1491,-2.149,-2.1489,-2.1488,-2.1225,-2.1274,-2.1293,-2.1343,-2.136,-2.1386,-2.1432,-2.1432,-2.1477,-2.1524,-2.1506,-2.1569,-2.159,-2.1642,-2.1658,-2.1707,-2.1676,-2.1704,-2.1712,-2.172,-2.1731,-2.1523,-2.1715,-2.1714,-2.1713,-2.1713,-2.1713,0,-2.1424,-2.1433,-2.1478,-2.1517,-2.1556,-2.1518,-2.1546,-2.1582,-2.1638,-2.166,-2.1699,-2.1762,-2.1811,-2.1815,-2.1861,-2.19,-2.1886,-2.1914,-2.1912,-2.1915,-2.1755,-2.1734,-2.1925,-2.1925,-2.1924,-2.1924,-2.1924,-2.1924,-2.1532,-2.1614,-2.1606,-2.1697,-2.1706,-2.1767,-2.1786,-2.1811,-2.1828,-2.19,-2.1941,-2.1942,-2.1957,-2.2004,-2.2048,-2.2048,-2.2068,-2.2102,-2.2097,-2.1947,-2.1927,-2.1907,-2.1887,-2.2106,-2.2106,-2.2253,-2.2254,-2.2255]},{"header":{"parameterUnit":"m.s-1","parameterCategory":1,"la1":30.2991,"la2":30.254,"lo1":-89.0895,"lo2":-89.0444,"dy":0.0017,"dx":0.0017,"nx":28,"ny":28,"refTime":"2024-08-25T09:00:00:Z","depth":0,"parameterNumber":3,"parameterNumberName":"V-component_of_WINDS"},"data":[0,0,0,0,0,0,0,0,0,0,0,0,0,0,0,0,0,0,0,0,0,0,0,0,0,0,0,0,0,0,0,0,0,0,0,0,0,0,0,0,0,0,0,0,0,0,0,0,0,0,0,0,0,0,0,0,0,0,-4.2446,-4.2447,0,-4.2508,-4.2509,-4.2509,-4.2453,-4.2451,-4.2448,-4.2446,-4.2505,-4.2509,-4.2513,0,0,0,0,0,0,0,0,0,0,0,0,0,-4.2274,-4.2277,-4.2446,-4.2447,-4.2448,-4.2508,-4.2509,-4.251,-4.2453,-4.245,-4.2448,-4.2445,-4.2504,-4.2508,-4.2513,0,0,0,0,0,0,0,0,0,0,0,0,0,-4.2344,-4.2279,-4.2446,-4.2427,-4.2426,-4.2508,-4.2509,-4.251,-4.2454,-4.245,-4.2447,-4.2444,-4.2503,-4.2508,-4.2514,-4.2616,0,0,-4.253,-4.2533,0,0,0,0,0,0,0,0,-4.234,-4.235,-4.2429,-4.2428,-4.2427,-4.2469,-4.247,-4.2545,-4.2455,-4.2443,-4.2446,-4.2442,-4.2496,-4.2502,-4.2521,-4.2619,-4.2621,-4.2531,-4.2534,-4.2537,-4.2538,0,0,0,0,0,0,0,-4.2335,-4.2347,-4.247,-4.243,-4.2429,-4.2414,-4.242,-4.2484,-4.2488,-4.2444,-4.244,-4.2448,-4.2495,-4.2516,-4.2522,-4.2622,-4.2531,-4.2536,-4.2539,-4.2541,-4.2806,-4.281,0,0,0,0,0,0,-4.2333,-4.2343,-4.2468,-4.2472,-4.2374,-4.242,-4.2426,-4.2459,-4.2487,-4.2488,-4.2451,-4.2445,-4.2508,-4.2515,-4.2524,-4.2645,-4.2537,-4.2542,-4.2545,-4.2803,-4.2807,-4.2811,0,0,0,0,0,0,-4.2329,-4.2345,-4.2466,-4.2407,-4.2421,-4.2426,-4.2463,-4.2462,-4.2483,-4.2492,-4.2492,-4.2472,-4.2505,-4.2516,-4.2594,-4.2646,-4.2544,-4.2549,-4.2798,-4.2804,-4.2809,-4.2889,0,0,0,0,0,0,-4.2325,-4.2344,-4.2384,-4.2408,-4.2425,-4.2537,-4.2467,-4.2466,-4.2493,-4.2486,-4.2512,-4.2513,-4.2503,-4.2586,-4.2599,-4.2652,-4.2554,-4.2794,-4.2801,-4.2808,-4.2881,-4.2896,-4.2909,0,0,0,0,0,-4.2319,-4.2403,-4.2386,-4.2402,-4.2475,-4.254,-4.2549,-4.2538,-4.2498,-4.2537,-4.2543,-4.2512,-4.2638,-4.2594,-4.2609,-4.2664,-4.279,-4.2799,-4.2807,-4.2875,-4.2893,-4.2909,0,0,0,0,0,0,-4.2383,-4.2406,-4.2387,-4.2482,-4.251,-4.253,-4.258,-4.2557,-4.2595,-4.2587,-4.257,-4.2576,-4.2658,-4.2669,-4.2619,-4.2764,-4.2708,-4.2719,-4.2754,-4.2772,-4.2785,-4.2781,-4.2558,0,0,0,0,0,-4.2409,-4.2461,-4.2477,-4.2559,-4.2574,-4.2575,-4.2603,-4.2592,-4.2619,-4.2629,-4.2641,-4.2667,-4.2712,-4.2743,-4.2785,-4.2883,-4.2887,-4.2928,-4.2942,-4.2953,-4.2963,-4.3014,-4.3032,-4.2839,-4.2839,-4.2839,0,0,-4.2461,-4.248,-4.2514,-4.2573,-4.2593,-4.2645,-4.2585,-4.2643,-4.2682,-4.2638,-4.2712,-4.2722,-4.275,-4.2838,-4.2877,-4.2849,-4.3017,-4.2964,-4.2973,-4.2976,-4.3025,-4.3043,-4.3059,-4.2844,-4.2843,-4.2843,0,0,-4.2584,-4.2605,-4.2675,-4.2696,-4.2728,-4.2728,-4.2745,-4.2769,-4.2774,-4.2848,-4.2816,-4.2861,-4.294,-4.2961,-4.2982,-4.3113,-4.3085,-4.3127,-4.3199,-4.3249,-4.3264,-4.3278,-4.3324,-4.334,-4.3137,-4.3137,-4.3137,0,-4.2645,-4.2726,-4.2713,-4.2775,-4.2801,-4.2765,-4.2835,-4.2856,-4.2899,-4.2917,-4.2885,-4.2983,-4.2999,-4.3092,-4.3124,-4.3142,-4.316,-4.3124,-4.3263,-4.3277,-4.3289,-4.3332,-4.335,-4.3142,-4.3142,-4.3141,-4.3141,0,-4.2799,-4.2855,-4.2907,-4.2951,-4.2983,-4.3049,-4.3045,-4.3079,-4.3065,-4.3068,-4.3143,-4.3162,-4.3207,-4.3228,-4.3215,-4.3318,-4.33,-4.3266,-4.3209,-4.3313,-4.3353,-4.337,-4.3149,-4.3147,-4.3146,-4.3145,0,0,-4.2964,-4.3001,-4.302,-4.3039,-4.3071,-4.3113,-4.3176,-4.3222,-4.3251,-4.3281,-4.3333,-4.3401,-4.337,-4.3394,-4.3382,-4.3426,-4.3528,-4.3387,-4.3387,-4.3412,-4.3642,-4.3666,-4.3686,-4.351,-4.3513,-4.3516,-4.3639,0,-4.3087,-4.3199,-4.319,-4.3294,-4.3345,-4.3311,-4.3366,-4.339,-4.3395,-4.3437,-4.344,-4.3489,-4.3445,-4.3459,-4.3501,-4.3507,-4.3573,-4.3498,-4.3556,-4.3558,-4.355,-4.3707,-4.3733,-4.3849,-4.3655,-4.3657,-4.3659,0,-4.3247,-4.3284,-4.3395,-4.3419,-4.3439,-4.3489,-4.3529,-4.3571,-4.3598,-4.3597,-4.3624,-4.3605,-4.3667,-4.3609,-4.3693,-4.3642,-4.3665,-4.3671,-4.3675,-4.3679,-4.3615,-4.3715,-4.3886,-4.3903,-4.3684,-4.3682,-4.3681,0,-4.3355,-4.3433,-4.3509,-4.3527,-4.3557,-4.3592,-4.3606,-4.3629,-4.3657,-4.3692,-4.371,-4.3751,-4.3773,-4.3805,-4.3797,-4.3756,-4.3883,-4.3824,-4.3883,-4.3883,-4.391,-4.3909,-4.4087,-4.3927,-4.3927,-4.3926,-4.3926,0,-4.3494,-4.3562,-4.3558,-4.3605,-4.368,-4.3668,-4.3742,-4.3752,-4.3773,-4.3819,-4.3792,-4.3836,-4.3823,-4.3866,-4.386,-4.393,-4.394,-4.394,-4.3938,-4.3943,-4.3943,-4.3957,-4.3948,-4.3931,-4.393,-4.3929,-4.3928,0,-4.3627,-4.3628,-4.3708,-4.373,-4.3737,-4.3792,-4.3809,-4.3853,-4.3855,-4.3914,-4.3927,-4.393,-4.3979,-4.3974,-4.4029,-4.4024,-4.4111,-4.4099,-4.4103,-4.41,-4.4158,-4.4152,-4.4351,-4.4376,-4.4201,-4.4203,-4.4204,0,-4.3715,-4.3767,-4.3795,-4.3825,-4.3842,-4.3891,-4.3919,-4.3909,-4.3939,-4.3974,-4.4012,-4.4059,-4.4096,-4.4176,-4.4182,-4.4223,-4.4211,-4.4278,-4.4217,-4.422,-4.4211,-4.4208,-4.4212,-4.429,-4.4292,-4.4293,-4.4295,0,-4.3871,-4.3869,-4.3912,-4.3955,-4.3991,-4.4024,-4.4054,-4.4079,-4.4072,-4.4107,-4.4158,-4.4187,-4.4243,-4.4289,-4.4328,-4.434,-4.4316,-4.4314,-4.4329,-4.4334,-4.4334,-4.4334,-4.4134,-4.4309,-4.4308,-4.4307,-4.4306,-4.4305,-4.3984,-4.4029,-4.4056,-4.4104,-4.4126,-4.4155,-4.4196,-4.4204,-4.4246,-4.4292,-4.4283,-4.434,-4.4364,-4.4414,-4.4431,-4.4474,-4.4449,-4.4472,-4.4478,-4.4483,-4.449,-4.4328,-4.4481,-4.448,-4.448,-4.448,-4.4479,0,-4.4138,-4.4154,-4.4199,-4.4242,-4.428,-4.4256,-4.4287,-4.432,-4.4371,-4.4396,-4.4434,-4.4491,-4.4536,-4.4546,-4.4588,-4.462,-4.461,-4.4632,-4.4629,-4.4632,-4.451,-4.4492,-4.4639,-4.4639,-4.4639,-4.4639,-4.4639,-4.4639,-4.4223,-4.4296,-4.4297,-4.4381,-4.4395,-4.4452,-4.4472,-4.4498,-4.4518,-4.4584,-4.4622,-4.4628,-4.4647,-4.469,-4.473,-4.4731,-4.4748,-4.4774,-4.4771,-4.4656,-4.464,-4.4625,-4.4608,-4.4778,-4.4778,-4.4889,-4.489,-4.4891]}]]